Lid_Strength_Index
1 1 1 2 1 1 1 1 -0 -0 -0 -0 -0 -0 -0 0 0 0 1 1 1 1
2 2 1 1 1 1 0 1 0 -0 -0 -0 -0 -0 -0 0 1 0 0 1 1 1
2 1 1 1 1 1 0 0 0 -0 -0 -0 -0 -0 -0 0 0 1 1 1 1 1
1 1 0 1 1 1 0 -0 0 0 0 -0 -0 -0 0 0 0 1 1 1 1 1
1 1 1 1 1 -0 0 0 0 0 0 0 0 -0 1 1 1 1 1 1 1 1
2 2 1 1 0 0 0 1 1 0 0 1 1 2 1 2 1 1 1 1 1 1
2 1 1 1 0 1 1 1 1 0 1 1 3 4 4 3 3 2 2 1 1 1
2 2 1 1 1 1 1 1 1 1 1 1 4 6 7 6 4 3 2 1 1 2
2 2 2 1 1 1 1 1 1 1 2 2 5 8 7 7 6 3 2 2 2 1
3 3 3 2 2 2 2 1 1 2 2 3 5 8 8 7 5 3 2 2 2 1
4 4 3 3 3 2 2 1 1 2 2 3 6 8 8 8 3 3 2 2 1 1
5 4 4 4 3 3 1 1 1 2 3 3 5 8 8 7 4 5 4 2 3 2
5 5 5 4 2 2 2 2 3 3 3 5 4 8 8 8 5 7 6 2 2 6
5 4 3 3 2 3 2 2 3 4 3 4 7 6 9 9 8 8 6 4 4 4